Home > Weather > Santarém > Past weeks

Flag for Brazil Weather for the Past 2 Weeks in Santarém, Pará, Brazil

Now
84 °F

Clear.


Feels Like: 94 °F
Forecast: 79 / 90 °F
Wind: 17 mph from East

Location: Santarem-Aeroporto

Current Time: Feb 9, 2016 at 1:07:43 AM

Latest Report: Feb 9, 2016 at 12:00 AM


Visibility: 10 mi

Pressure: 29.89 "Hg

Humidity: 79%

Dew point: 77 °F

Location of SantarémLocation

Historic Weather in Santarém — Graph

°F

Santarém Temperature Yesterday

Maximum temperature yesterday: 91 °F (at 2:00 PM)
Minimum temperature yesterday: 77 °F (at 1:00 AM)
Average temperature yesterday: 83 °F

High & Low Weather Summary for the Past Weeks

 TemperatureHumidityPressure
High91 °F (Jan 25, 2:00 PM)100% (Feb 1, 4:00 AM)29.98 "Hg (Feb 1, 4:00 AM)
Low73 °F (Jan 31, 8:00 AM)18% (Jan 30, 6:00 PM)29.74 "Hg (Feb 4, 5:00 PM)
Average81 °F80%29.87 "Hg
* Reported Jan 24 11:00 PM — Feb 8 11:00 PM, Santarém, Weather by CustomWeather, © 2016

Note: Actual official high and low records may vary slightly from our data, if they occured in-between our weather recording intervals... More about our weather records

Advertising

Santarém Weather History for the Previous 24 Hours

 ConditionsComfort  
Time TempWeatherWind HumidityBarometerVisibility
11:00 PM
Mon, Feb 8
82 °FClear.8 mph84%29.86 "Hg10 mi
10:00 PM84 °FClear.6 mph79%29.86 "Hg10 mi
9:00 PM84 °FClear.3 mph79%29.83 "Hg10 mi
8:00 PM84 °FPassing clouds.3 mph79%29.80 "HgN/A
7:00 PM86 °FPassing clouds.9 mph70%29.80 "HgN/A
5:00 PM91 °FScattered clouds.16 mph59%29.80 "HgN/A
3:00 PM91 °FPassing clouds.16 mph59%29.86 "HgN/A
2:00 PM91 °FPassing clouds.17 mph59%29.89 "HgN/A
1:00 PM90 °FPartly sunny.16 mph63%29.92 "HgN/A
12:00 PM88 °FScattered clouds.14 mph66%29.95 "HgN/A
11:00 AM84 °FPartly sunny.14 mph74%29.98 "HgN/A
10:00 AM84 °FScattered clouds.14 mph79%29.95 "HgN/A
9:00 AM82 °FScattered clouds.14 mph79%29.95 "HgN/A
8:00 AM81 °FPassing clouds.12 mph84%29.92 "HgN/A
7:00 AM79 °FPartly cloudy.8 mph89%29.89 "HgN/A
6:00 AM79 °FPassing clouds.8 mph89%29.86 "HgN/A
5:00 AM77 °FPassing clouds.7 mph94%29.86 "HgN/A
4:00 AM79 °FClear.3 mph89%29.86 "Hg10 mi
3:00 AM81 °FPassing clouds.6 mph89%29.86 "HgN/A
2:00 AM79 °FClear.10 mph89%29.86 "Hg10 mi
1:00 AM77 °FClear.2 mph94%29.86 "Hg10 mi
Weather by CustomWeather, © 2016

See weather overviewHow to use our weather pages